Location: Myrnam
(53.6612°N, 111.2289°W)
Time: 13:44:59
(UTC+00:00)

SO-50 - Pass Details

Date: 13 December 2023
Orbit: 607 x 661 km, 64.6° (Epoch: 21 February)

Event Time Altitude Azimuth Distance (km) Brightness Sun altitude
Exits shadow 11:07:35 10° 39° (NE) 2,017 ? -37.7°
Drops below altitude 10° 11:07:38 10° 39° (NE) 2,036 ? -37.7°
Sets 11:10:06 0° 49° (NE) 2,937 ? -37.4°
